Flag for Montenegro Weather past 2 weeks in Nikšić, Montenegro

Now
43 °F

Overcast.


Feels Like: 39 °F
Forecast: 33 / 51 °F
Wind: 7 mph from North

Location: Niksic

Current Time: Apr 18, 2015 at 10:14:18 PM

Latest Report: Apr 18, 2015 at 9:00 PM


Visibility: 13 mi

Pressure: 30.03 "Hg

Humidity: 99%

Dew point: 43 °F

Location of NikšićLocation

Historic Weather in Nikšić — Graph

°F

Nikšić temperature yesterday

Maximum temperature yesterday: 62 °F (at 4:00 PM)
Minimum temperature yesterday: 41 °F (at 6:00 AM)
Average temperature yesterday: 54 °F

Past Weeks' High & Low Weather Summary

 TemperatureHumidityPressure
High70 °F (Apr 13, 5:00 PM)100% (Apr 5, 9:00 AM)30.47 "Hg (Apr 5, 9:00 AM)
Low29 °F (Apr 4, 7:00 AM)22% (Apr 10, 2:00 PM)29.77 "Hg (Apr 5, 6:00 PM)
Average49 °F60%30.15 "Hg
* Reported Apr 3 8:00 PM — Apr 18 8:00 PM, Nikšić, Weather by CustomWeather, © 2015

Note: Actual official high and low records may vary slightly from our data, if they occured in-between our weather recording intervals... More about our weather records

Advertising

Nikšić weather history for previous 24 hours

 ConditionsComfort  
Time TempWeatherWind HumidityBarometerVisibility
8:00 PM
Sat, Apr 18
43 °FOvercast.6 mph100%30.02 "Hg12 mi
7:00 PM42 °FOvercast.7 mph100%30.01 "Hg12 mi
6:00 PM47 °FOvercast.9 mph100%29.94 "Hg12 mi
5:00 PM50 °FRain. Overcast.1 mph99%29.93 "Hg12 mi
4:00 PM52 °FOvercast.1 mph100%29.91 "Hg12 mi
3:00 PM50 °FLight rain. Overcast.1 mph99%29.93 "Hg12 mi
2:00 PM49 °FThunderstorms. Overcast.1 mph100%29.95 "Hg11 mi
1:00 PM52 °FLight rain. Overcast.2 mph100%29.92 "Hg9 mi
12:00 PM52 °FOvercast.6 mph99%29.93 "Hg9 mi
11:00 AM51 °FLow clouds.5 mph99%29.96 "Hg1 mi
10:00 AM50 °FOvercast.3 mph100%29.96 "Hg12 mi
9:00 AM50 °FOvercast.5 mph99%29.97 "Hg9 mi
8:00 AM50 °FOvercast.5 mph99%29.98 "Hg11 mi
7:00 AM50 °FOvercast.5 mph100%29.98 "Hg11 mi
6:00 AM50 °FOvercast.3 mph99%29.98 "Hg11 mi
2:00 AM49 °FOvercast.5 mph99%30.03 "Hg12 mi
11:00 PM
Fri, Apr 17
52 °FOvercast.6 mph100%30.06 "Hg12 mi
10:00 PM52 °FOvercast.5 mph100%30.06 "Hg12 mi
Weather by CustomWeather, © 2015

See weather overviewHow to use our weather pages